[[{"header":{"parameterUnit":"m.s-1","parameterCategory":1,"la1":30.2991,"la2":30.254,"lo1":-89.0895,"lo2":-89.0444,"dy":0.0017,"dx":0.0017,"nx":28,"ny":28,"refTime":"2023-09-11T03:00:00:Z","depth":0,"parameterNumber":2,"parameterNumberName":"U-component_of_WINDS"},"data":[0,0,0,0,0,0,0,0,0,0,0,0,0,0,0,0,0,0,0,0,0,0,0,0,0,0,0,0,0,0,0,0,0,0,0,0,0,0,0,0,0,0,0,0,0,0,0,0,0,0,0,0,0,0,0,0,0,0,-2.8663,-2.8662,0,-2.8622,-2.8621,-2.8621,-2.8461,-2.8457,-2.8453,-2.845,-2.8413,-2.8415,-2.8418,0,0,0,0,0,0,0,0,0,0,0,0,0,-2.8606,-2.8608,-2.8663,-2.8662,-2.8662,-2.8622,-2.8621,-2.8621,-2.8461,-2.8457,-2.8452,-2.8448,-2.8412,-2.8415,-2.8418,0,0,0,0,0,0,0,0,0,0,0,0,0,-2.8605,-2.8609,-2.8663,-2.8577,-2.8569,-2.8622,-2.8621,-2.8621,-2.8462,-2.8457,-2.8451,-2.8446,-2.8411,-2.8415,-2.8418,-2.8552,0,0,-2.8429,-2.8431,0,0,0,0,0,0,0,0,-2.8605,-2.8607,-2.859,-2.8583,-2.8574,-2.854,-2.8588,-2.8598,-2.8464,-2.8503,-2.845,-2.8443,-2.846,-2.8459,-2.8464,-2.855,-2.8549,-2.843,-2.8432,-2.8434,-2.8435,0,0,0,0,0,0,0,-2.8605,-2.8608,-2.8647,-2.859,-2.8581,-2.8542,-2.8536,-2.8589,-2.8513,-2.8499,-2.8487,-2.8484,-2.8455,-2.8461,-2.8462,-2.8548,-2.843,-2.8433,-2.8435,-2.8437,-2.8741,-2.8746,0,0,0,0,0,0,-2.8617,-2.8609,-2.8648,-2.8645,-2.8576,-2.8548,-2.854,-2.8557,-2.8512,-2.85,-2.8489,-2.8477,-2.8457,-2.8458,-2.846,-2.8612,-2.8434,-2.8437,-2.8439,-2.8735,-2.8742,-2.8748,0,0,0,0,0,0,-2.8616,-2.8622,-2.865,-2.8624,-2.8625,-2.8554,-2.8574,-2.8559,-2.8565,-2.8505,-2.8491,-2.8509,-2.8453,-2.8455,-2.853,-2.8609,-2.8439,-2.8442,-2.8728,-2.8737,-2.8745,-2.892,0,0,0,0,0,0,-2.8616,-2.8623,-2.8672,-2.8626,-2.8627,-2.872,-2.8579,-2.8562,-2.8571,-2.8555,-2.852,-2.8509,-2.8449,-2.8525,-2.8533,-2.8611,-2.8445,-2.8721,-2.8732,-2.8742,-2.8906,-2.8933,-2.8956,0,0,0,0,0,-2.8614,-2.8725,-2.8676,-2.8681,-2.8687,-2.8724,-2.8725,-2.8652,-2.8579,-2.8628,-2.8589,-2.851,-2.8599,-2.8534,-2.8542,-2.8622,-2.8715,-2.8729,-2.8742,-2.8895,-2.8928,-2.8956,0,0,0,0,0,0,-2.8784,-2.8717,-2.8662,-2.8761,-2.8749,-2.8697,-2.8757,-2.8689,-2.87,-2.8684,-2.8595,-2.8589,-2.8676,-2.8657,-2.8585,-2.8748,-2.8644,-2.8659,-2.8758,-2.8788,-2.8813,-2.8816,-2.8448,0,0,0,0,0,-2.8833,-2.8867,-2.8807,-2.89,-2.8897,-2.8829,-2.8843,-2.8787,-2.8772,-2.8767,-2.8734,-2.8724,-2.8749,-2.8768,-2.8788,-2.8903,-2.8893,-2.8962,-2.8987,-2.9008,-2.9022,-2.908,-2.911,-2.8792,-2.8792,-2.8791,0,0,-2.8934,-2.8902,-2.8929,-2.8934,-2.8918,-2.8957,-2.8826,-2.8873,-2.8901,-2.8775,-2.8842,-2.8818,-2.8801,-2.8896,-2.8936,-2.8882,-2.9107,-2.9024,-2.9041,-2.9044,-2.9096,-2.9127,-2.9153,-2.8801,-2.8799,-2.8798,0,0,-2.9138,-2.9118,-2.9191,-2.9178,-2.9155,-2.9109,-2.9127,-2.9085,-2.9063,-2.9129,-2.9035,-2.9068,-2.9114,-2.9105,-2.9107,-2.9306,-2.9234,-2.9316,-2.9445,-2.9503,-2.9528,-2.955,-2.962,-2.9646,-2.933,-2.9331,-2.9331,0,-2.9267,-2.932,-2.9239,-2.9291,-2.9295,-2.9181,-2.9255,-2.9247,-2.9234,-2.924,-2.9179,-2.9233,-2.9214,-2.9305,-2.9353,-2.9359,-2.9377,-2.9319,-2.9531,-2.9552,-2.9571,-2.9637,-2.9663,-2.9341,-2.9339,-2.9338,-2.9337,0,-2.948,-2.9518,-2.9581,-2.9568,-2.9579,-2.9643,-2.9572,-2.9594,-2.9538,-2.9498,-2.9567,-2.9539,-2.9551,-2.9568,-2.9515,-2.9652,-2.9619,-2.9546,-2.9439,-2.9612,-2.9673,-2.9697,-2.9355,-2.9351,-2.9348,-2.9346,0,0,-2.979,-2.9729,-2.9754,-2.9746,-2.9712,-2.974,-2.9799,-2.9808,-2.9828,-2.9823,-2.987,-2.9911,-2.9843,-2.9845,-2.9789,-2.984,-2.9999,-2.9761,-2.9759,-2.9805,-3.0146,-3.02,-3.023,-2.995,-2.9955,-2.9959,-3.0147,0,-2.9983,-3.0077,-3.0005,-3.0112,-3.0146,-3.0038,-3.0088,-3.0074,-3.0039,-3.0063,-3.0024,-3.0054,-2.9963,-2.9963,-3.0008,-2.997,-3.0066,-2.9955,-2.9993,-2.9996,-2.9999,-3.0262,-3.0319,-3.0498,-3.017,-3.0174,-3.0177,0,-3.0221,-3.0223,-3.0333,-3.029,-3.0302,-3.0349,-3.0351,-3.0376,-3.0357,-3.0327,-3.0329,-3.026,-3.0315,-3.0211,-3.0285,-3.0212,-3.0223,-3.0207,-3.0212,-3.0212,-3.0096,-3.0268,-3.0554,-3.058,-3.0214,-3.0211,-3.0208,0,-3.0434,-3.0465,-3.0534,-3.0531,-3.0483,-3.0518,-3.0501,-3.0476,-3.0486,-3.0489,-3.0494,-3.0505,-3.051,-3.052,-3.0456,-3.0386,-3.0539,-3.0429,-3.0516,-3.0518,-3.0552,-3.0551,-3.0843,-3.0562,-3.0562,-3.0561,-3.0561,0,-3.0657,-3.0728,-3.0629,-3.0672,-3.0749,-3.0665,-3.0744,-3.0715,-3.0694,-3.073,-3.0638,-3.0674,-3.0587,-3.0615,-3.0565,-3.0634,-3.0637,-3.0615,-3.0601,-3.0623,-3.0625,-3.0628,-3.0614,-3.0568,-3.0567,-3.0566,-3.0564,0,-3.0908,-3.0844,-3.0912,-3.0861,-3.0849,-3.0908,-3.0864,-3.0902,-3.086,-3.0906,-3.0913,-3.0848,-3.0875,-3.0811,-3.083,-3.0797,-3.0894,-3.0861,-3.09,-3.0889,-3.0979,-3.0971,-3.1282,-3.1318,-3.1017,-3.102,-3.1022,0,-3.1053,-3.1105,-3.1058,-3.1074,-3.106,-3.1088,-3.1097,-3.1017,-3.1031,-3.1012,-3.1053,-3.1072,-3.1082,-3.1131,-3.1086,-3.11,-3.1065,-3.1174,-3.1067,-3.1087,-3.1065,-3.1062,-3.1067,-3.1195,-3.1199,-3.1202,-3.1205,0,-3.1317,-3.1283,-3.1298,-3.1302,-3.1314,-3.1315,-3.1309,-3.1328,-3.1243,-3.1263,-3.1288,-3.1296,-3.1314,-3.1334,-3.1337,-3.132,-3.1249,-3.1239,-3.1259,-3.1281,-3.1301,-3.129,-3.0958,-3.1232,-3.1229,-3.1227,-3.1225,-3.1224,-3.1518,-3.1559,-3.1531,-3.1551,-3.1537,-3.1533,-3.1565,-3.1526,-3.1545,-3.1552,-3.1504,-3.154,-3.1519,-3.1516,-3.1506,-3.1533,-3.1484,-3.1515,-3.1522,-3.153,-3.1544,-3.1298,-3.1534,-3.1533,-3.1533,-3.1532,-3.1531,0,-3.1776,-3.1753,-3.1772,-3.1764,-3.178,-3.1709,-3.1699,-3.1717,-3.1748,-3.1734,-3.1746,-3.1775,-3.1794,-3.175,-3.1762,-3.1793,-3.176,-3.1798,-3.1795,-3.1792,-3.1588,-3.1568,-3.1824,-3.1824,-3.1824,-3.1824,-3.1824,-3.1824,-3.1912,-3.1976,-3.1938,-3.1994,-3.197,-3.2002,-3.2002,-3.1998,-3.1986,-3.2021,-3.2036,-3.2006,-3.198,-3.199,-3.2004,-3.1991,-3.1999,-3.2048,-3.2024,-3.1835,-3.1806,-3.1779,-3.176,-3.2051,-3.2052,-3.2224,-3.2226,-3.2227]},{"header":{"parameterUnit":"m.s-1","parameterCategory":1,"la1":30.2991,"la2":30.254,"lo1":-89.0895,"lo2":-89.0444,"dy":0.0017,"dx":0.0017,"nx":28,"ny":28,"refTime":"2023-09-11T03:00:00:Z","depth":0,"parameterNumber":3,"parameterNumberName":"V-component_of_WINDS"},"data":[0,0,0,0,0,0,0,0,0,0,0,0,0,0,0,0,0,0,0,0,0,0,0,0,0,0,0,0,0,0,0,0,0,0,0,0,0,0,0,0,0,0,0,0,0,0,0,0,0,0,0,0,0,0,0,0,0,0,-1.8455,-1.8456,0,-1.8491,-1.8491,-1.8491,-1.8498,-1.8498,-1.8497,-1.8497,-1.853,-1.8531,-1.8533,0,0,0,0,0,0,0,0,0,0,0,0,0,-1.8388,-1.839,-1.8455,-1.8456,-1.8456,-1.8491,-1.8491,-1.8492,-1.8498,-1.8498,-1.8497,-1.8497,-1.853,-1.8531,-1.8533,0,0,0,0,0,0,0,0,0,0,0,0,0,-1.842,-1.839,-1.8455,-1.8464,-1.8465,-1.8491,-1.8491,-1.8492,-1.8498,-1.8498,-1.8497,-1.8497,-1.8529,-1.8531,-1.8533,-1.8552,0,0,-1.8538,-1.8539,0,0,0,0,0,0,0,0,-1.8418,-1.8422,-1.8462,-1.8463,-1.8464,-1.849,-1.848,-1.8512,-1.8498,-1.8485,-1.8497,-1.8497,-1.8517,-1.852,-1.8527,-1.8553,-1.8555,-1.8538,-1.8539,-1.854,-1.854,0,0,0,0,0,0,0,-1.8416,-1.8421,-1.8469,-1.8462,-1.8464,-1.8464,-1.8468,-1.8486,-1.8503,-1.8486,-1.8487,-1.8491,-1.8517,-1.8525,-1.8528,-1.8555,-1.8538,-1.854,-1.8541,-1.8541,-1.8596,-1.8597,0,0,0,0,0,0,-1.8413,-1.8419,-1.8468,-1.847,-1.844,-1.8466,-1.847,-1.8482,-1.8503,-1.8506,-1.8492,-1.8491,-1.8523,-1.8526,-1.8529,-1.8551,-1.854,-1.8542,-1.8543,-1.8596,-1.8597,-1.8597,0,0,0,0,0,0,-1.8411,-1.8417,-1.8467,-1.8445,-1.8451,-1.8467,-1.848,-1.8483,-1.8491,-1.8507,-1.8509,-1.8497,-1.8522,-1.8527,-1.8546,-1.8553,-1.8542,-1.8544,-1.8596,-1.8596,-1.8597,-1.8597,0,0,0,0,0,0,-1.8409,-1.8417,-1.8425,-1.8445,-1.8452,-1.8484,-1.8481,-1.8484,-1.8494,-1.8494,-1.8512,-1.8515,-1.8522,-1.8543,-1.8548,-1.8555,-1.8545,-1.8595,-1.8596,-1.8597,-1.8596,-1.8597,-1.8598,0,0,0,0,0,-1.8407,-1.8423,-1.8426,-1.8431,-1.8464,-1.8485,-1.8489,-1.8498,-1.8495,-1.8502,-1.8512,-1.8514,-1.8551,-1.8545,-1.855,-1.8558,-1.8595,-1.8596,-1.8597,-1.8596,-1.8597,-1.8598,0,0,0,0,0,0,-1.8403,-1.8426,-1.8429,-1.8453,-1.8467,-1.8486,-1.8496,-1.8499,-1.8514,-1.8513,-1.8523,-1.8527,-1.8545,-1.8553,-1.8546,-1.8576,-1.8572,-1.8574,-1.857,-1.8572,-1.8573,-1.857,-1.8547,0,0,0,0,0,-1.8405,-1.8422,-1.8441,-1.8459,-1.8466,-1.848,-1.8489,-1.8495,-1.851,-1.8515,-1.8527,-1.854,-1.8554,-1.8563,-1.8578,-1.8597,-1.8601,-1.8605,-1.8606,-1.8607,-1.8608,-1.8618,-1.8619,-1.86,-1.86,-1.86,0,0,-1.841,-1.8424,-1.8434,-1.8459,-1.8471,-1.8486,-1.8485,-1.8502,-1.8512,-1.8518,-1.8537,-1.8545,-1.856,-1.8579,-1.8588,-1.8587,-1.8614,-1.8608,-1.8609,-1.861,-1.8619,-1.8621,-1.8622,-1.8601,-1.8601,-1.8601,0,0,-1.8425,-1.8438,-1.8455,-1.8466,-1.8484,-1.8493,-1.8497,-1.8515,-1.8521,-1.854,-1.8544,-1.8556,-1.8581,-1.8591,-1.86,-1.8617,-1.8618,-1.8621,-1.8626,-1.8635,-1.8637,-1.8638,-1.8643,-1.8645,-1.8622,-1.8622,-1.8622,0,-1.8428,-1.8452,-1.8463,-1.8479,-1.8489,-1.8495,-1.8511,-1.8521,-1.8542,-1.8548,-1.8546,-1.8577,-1.8587,-1.8608,-1.8612,-1.8619,-1.8622,-1.8619,-1.8636,-1.8637,-1.8639,-1.8644,-1.8646,-1.8623,-1.8623,-1.8622,-1.8622,0,-1.8454,-1.8471,-1.8482,-1.8502,-1.8513,-1.8529,-1.854,-1.855,-1.8555,-1.8563,-1.8581,-1.8594,-1.861,-1.8615,-1.862,-1.8636,-1.8635,-1.8634,-1.8631,-1.8641,-1.8645,-1.8647,-1.8623,-1.8623,-1.8623,-1.8623,0,0,-1.8469,-1.8494,-1.8498,-1.8507,-1.8526,-1.8538,-1.8553,-1.857,-1.8577,-1.8591,-1.8603,-1.8623,-1.8622,-1.8632,-1.8637,-1.8645,-1.8656,-1.8644,-1.8644,-1.8645,-1.8673,-1.8673,-1.8675,-1.8657,-1.8658,-1.8658,-1.8672,0,-1.8486,-1.8514,-1.8523,-1.8546,-1.8561,-1.8566,-1.8578,-1.8591,-1.8598,-1.861,-1.8618,-1.8632,-1.8631,-1.8637,-1.8645,-1.8653,-1.8662,-1.8652,-1.8667,-1.8668,-1.8663,-1.8678,-1.8678,-1.869,-1.8674,-1.8674,-1.8674,0,-1.851,-1.8524,-1.8549,-1.8565,-1.8571,-1.8583,-1.8597,-1.861,-1.8623,-1.8627,-1.8637,-1.8642,-1.8656,-1.8651,-1.867,-1.8663,-1.867,-1.8674,-1.8675,-1.8676,-1.8671,-1.8679,-1.8695,-1.8696,-1.8678,-1.8677,-1.8677,0,-1.8516,-1.8542,-1.856,-1.8567,-1.8586,-1.8594,-1.8602,-1.8615,-1.8624,-1.8636,-1.8642,-1.8656,-1.8663,-1.8673,-1.868,-1.8676,-1.8697,-1.8694,-1.87,-1.87,-1.8705,-1.8704,-1.8721,-1.871,-1.871,-1.871,-1.871,0,-1.8534,-1.8549,-1.8563,-1.8574,-1.859,-1.8599,-1.8614,-1.8622,-1.8633,-1.8644,-1.8649,-1.8659,-1.8668,-1.8679,-1.8685,-1.8699,-1.8702,-1.8705,-1.8707,-1.8705,-1.8704,-1.8709,-1.8708,-1.871,-1.871,-1.871,-1.871,0,-1.8544,-1.8555,-1.8574,-1.8591,-1.8595,-1.8606,-1.8619,-1.8629,-1.8636,-1.865,-1.8654,-1.8665,-1.8678,-1.8687,-1.8703,-1.8707,-1.8721,-1.8723,-1.8717,-1.8718,-1.8723,-1.8722,-1.8743,-1.8746,-1.8734,-1.8734,-1.8734,0,-1.8555,-1.8566,-1.8583,-1.8592,-1.86,-1.8613,-1.8622,-1.8631,-1.864,-1.8655,-1.8662,-1.8676,-1.8687,-1.8707,-1.8716,-1.8728,-1.8729,-1.8736,-1.8731,-1.8728,-1.8728,-1.8727,-1.8728,-1.8736,-1.8736,-1.8736,-1.8737,0,-1.8571,-1.8575,-1.8589,-1.8603,-1.8614,-1.8626,-1.8637,-1.8644,-1.8654,-1.8663,-1.8677,-1.8686,-1.8702,-1.8715,-1.8728,-1.8735,-1.8737,-1.8738,-1.874,-1.8738,-1.8734,-1.8735,-1.8718,-1.8737,-1.8737,-1.8737,-1.8737,-1.8737,-1.8581,-1.8591,-1.8604,-1.8619,-1.8628,-1.8639,-1.8648,-1.8657,-1.8669,-1.8683,-1.8688,-1.8701,-1.8712,-1.873,-1.8737,-1.8747,-1.8746,-1.8749,-1.875,-1.875,-1.875,-1.8733,-1.8749,-1.8749,-1.8749,-1.8749,-1.8749,0,-1.8597,-1.8606,-1.8619,-1.8635,-1.8646,-1.8647,-1.866,-1.8668,-1.8681,-1.8691,-1.8702,-1.8717,-1.8729,-1.8739,-1.8751,-1.8757,-1.8758,-1.8759,-1.8759,-1.876,-1.875,-1.8747,-1.8758,-1.8758,-1.8758,-1.8758,-1.8758,-1.8758,-1.8607,-1.8623,-1.8628,-1.8649,-1.8657,-1.8671,-1.8678,-1.8687,-1.8695,-1.8712,-1.8722,-1.8729,-1.8738,-1.8751,-1.8761,-1.8764,-1.8767,-1.8769,-1.8771,-1.8762,-1.8761,-1.876,-1.8757,-1.877,-1.877,-1.878,-1.878,-1.878]}]]